User: anonymous   Login
Location: Plymouth
(43.7570°N, 71.6890°W)
Time: 00:26:26
(UTC-05:00)
Language:

Cosmos 2016 Rocket - Orbit

View from above orbital plane
View from above orbital plane
View from above satellite
View from above satellite

Ground track
Ground track

The orbit data is extracted from the following two-line orbital elements,

1 19922U 89028B   17056.42671765  .00000044  00000-0  28989-4 0  9995
2 19922  82.9616 149.7019 0036334 196.5436 163.4539 13.77191636401843
Epoch (UTC): 25 February 2017 10:14:28
Eccentricity: 0.0036334
inclination: 82.9616°
perigee height: 947 km
apogee height: 1000 km
right ascension of ascending node: 149.7019°
argument of perigee: 196.5436°
revolutions per day: 13.77191636
mean anomaly at epoch: 163.4539°
orbit number at epoch: 40184

The dashed part of the orbit path shows where the satellite is in the earth's shadow,  

DLR